Location: Gro� Glienicke
(52.4675°N, 13.1079°E)
Time: 19:20:10
(UTC+00:00)

Cosmos 2151 - Pass Details

Date: 06 July 2020
Orbit: 580 x 602 km, 82.5° (Epoch: 11 August)

Event Time Altitude Azimuth Distance (km) Brightness Sun altitude
Exits shadow 21:55:40 21° 164° (SSE) 1,368 4.2 -13.1°
Maximum altitude 21:58:20 52° 95° (E) 745 3.3 -13.2°
Drops below altitude 10° 22:02:30 10° 19° (NNE) 1,942 6.5 -13.4°
Sets 22:04:45 0° 15° (NNE) 2,845 7.5 -13.5°
